Wind_Speed
21 25 26 25 26 26 24 25 26 23 21 20 18 17 16 16 15 14 15 16 15 14 14 14 13 12 11 11 11 12 13 14 14 15 16 16 15 14 13 15 15 14 12 11 10 10 10 9 9 8 8 8 8 8 6 5 5 5 4 4 4 3 3 5 6 7 8 7 8 8 8 9 9 9 11 11 10 11 11 10 10 10 8 8 8
21 25 27 28 28 27 23 23 24 24 21 19 19 18 17 17 18 17 16 15 15 15 14 13 13 12 12 12 14 14 15 16 16 16 17 17 15 14 13 14 15 14 14 13 12 11 10 10 10 9 8 9 9 8 6 5 5 4 3 3 4 3 2 4 6 8 9 8 8 8 8 8 9 9 10 11 11 11 11 10 10 9 9 9 8
23 28 30 30 30 27 23 22 22 23 21 20 20 19 17 17 19 19 16 14 14 15 14 13 13 14 14 15 16 16 16 17 16 17 18 18 16 14 13 14 15 14 13 13 13 12 10 10 10 10 9 8 8 7 6 5 4 4 3 3 3 3 2 3 5 7 9 9 9 9 9 9 10 10 10 11 11 12 11 10 10 10 10 10 9
24 28 29 29 27 25 24 23 21 21 21 21 21 20 19 18 18 19 18 15 14 14 14 14 15 16 16 17 18 17 17 18 17 17 18 18 18 17 15 15 16 15 14 13 10 9 9 10 11 12 11 10 9 7 6 5 3 3 3 2 2 3 3 3 5 7 9 10 10 9 10 11 11 11 11 12 12 12 11 11 11 11 11 12 11
26 27 27 25 23 23 24 23 21 21 22 22 21 21 21 19 19 19 19 18 16 14 15 17 17 17 18 18 19 19 19 19 19 19 19 18 18 17 16 16 15 15 13 10 7 8 10 12 12 10 10 11 11 8 5 4 4 3 3 2 2 3 4 4 5 7 8 10 11 10 10 11 12 11 12 13 14 13 12 12 12 12 13 13 13
25 27 27 24 22 23 23 22 22 23 24 25 23 21 20 20 19 19 19 19 18 15 16 19 20 19 19 19 19 20 20 20 21 21 20 19 19 18 17 16 15 14 11 7 9 12 14 13 12 10 8 8 9 8 6 5 4 4 3 2 3 4 5 5 6 7 8 10 10 11 11 11 11 11 12 13 14 13 13 14 13 13 13 14 14
26 27 25 24 23 23 23 23 23 23 24 27 27 24 21 20 19 19 19 19 19 17 16 20 22 21 20 20 19 19 20 21 21 20 18 19 18 17 17 16 14 12 8 8 12 14 14 13 12 11 10 8 9 8 7 5 5 4 3 2 2 4 5 6 6 6 7 9 9 9 10 10 10 11 12 13 12 12 13 15 15 14 14 15 15
26 28 24 22 24 26 25 23 23 24 26 29 29 27 23 21 19 19 18 18 19 18 17 18 20 20 20 20 18 19 20 20 20 17 17 18 17 17 17 16 12 8 6 10 14 14 15 14 12 11 10 10 10 10 8 7 6 4 3 2 2 3 4 4 4 5 6 7 8 8 8 9 10 11 13 13 13 13 14 14 15 15 16 15 13
22 26 25 24 27 29 29 27 26 27 29 29 29 29 27 24 20 19 18 18 18 17 17 17 17 17 19 19 18 18 19 20 19 16 15 15 16 16 15 13 10 7 8 13 14 13 14 14 12 11 11 10 10 10 9 8 6 4 3 1 1 2 2 3 4 4 6 6 7 8 8 9 11 13 14 14 14 14 13 13 13 14 15 13 12
18 22 25 28 31 31 31 31 30 30 29 29 30 30 29 25 21 20 19 19 18 16 17 18 17 16 17 19 19 19 20 20 18 17 15 14 16 16 13 10 9 9 12 15 13 10 11 10 9 9 9 10 11 10 8 7 7 5 3 1 1 2 2 3 4 4 4 5 7 8 9 10 12 13 13 13 13 13 13 13 14 13 14 12 11
19 21 24 28 31 31 30 30 30 30 30 30 29 29 29 26 23 22 21 20 19 19 18 18 18 17 16 17 18 17 18 19 19 18 16 14 15 14 10 8 9 10 13 15 14 12 10 7 5 5 7 8 7 8 7 7 6 4 2 1 1 2 3 4 5 5 5 6 8 9 10 11 12 12 12 12 12 13 13 13 14 14 14 12 11
19 21 23 26 28 30 29 28 28 29 29 30 30 29 29 27 25 24 23 21 20 19 18 18 19 19 17 17 16 13 15 18 18 16 14 13 14 12 11 11 11 12 13 13 12 12 9 6 6 8 10 9 8 7 7 6 5 4 4 4 6 6 7 7 7 7 7 9 10 11 10 11 12 13 13 12 10 11 11 11 12 13 13 13 11
18 20 21 23 24 26 27 26 26 27 29 29 30 29 27 26 26 25 23 21 19 19 19 18 19 20 18 18 16 14 16 18 17 15 14 14 14 14 15 14 11 14 15 11 8 8 7 8 9 10 12 13 12 9 6 8 9 9 10 11 11 12 12 13 12 11 11 11 12 13 12 12 13 13 12 11 10 10 10 11 12 11 12 14 14
18 19 21 21 23 25 26 26 26 27 28 29 28 27 27 27 26 24 21 19 19 20 20 19 19 19 18 18 18 17 18 17 14 13 13 13 14 15 14 12 11 14 13 8 6 5 6 8 10 12 13 12 10 8 9 13 13 12 12 12 12 12 13 14 14 13 13 12 13 13 12 12 13 12 12 12 10 10 11 11 11 10 10 12 15
17 19 20 21 23 24 25 26 27 26 26 26 25 25 25 25 23 21 19 19 20 22 21 18 17 19 19 17 17 17 17 16 14 12 11 10 12 12 11 11 11 10 6 5 5 5 5 8 10 11 11 9 9 9 10 11 12 14 14 14 14 14 14 13 12 13 13 13 13 13 12 13 12 13 14 15 13 12 12 11 11 10 8 9 13
16 18 19 19 21 23 25 26 26 25 24 24 23 23 23 23 22 22 21 20 21 21 20 18 18 19 18 17 17 16 16 15 14 12 10 9 8 9 10 9 7 6 6 5 5 3 3 6 9 10 9 11 12 11 9 10 13 16 17 17 17 18 18 16 14 15 15 15 14 13 13 13 14 15 16 16 14 12 11 12 14 14 12 10 11
16 17 18 19 19 22 24 25 26 25 25 26 26 25 27 27 26 25 23 21 20 20 19 19 18 17 17 16 16 16 14 13 13 11 9 7 6 8 8 6 5 6 5 4 3 4 4 6 8 8 9 12 13 11 11 13 16 19 18 17 17 17 17 17 17 17 17 17 16 15 14 14 15 16 17 18 17 15 14 16 16 16 14 12 11
15 17 18 19 19 21 23 25 26 26 28 29 29 28 29 28 26 25 24 21 20 19 18 17 17 16 16 16 16 15 13 11 9 8 7 6 6 7 7 6 6 7 7 8 9 9 8 8 10 12 15 16 15 15 15 15 16 18 18 18 17 15 14 15 18 19 18 17 17 16 16 16 16 17 18 19 19 18 17 16 15 13 13 12 11
17 19 21 20 19 20 22 24 25 26 29 30 29 26 26 24 23 23 24 22 20 19 17 17 17 16 16 16 14 12 10 8 5 4 3 4 6 7 8 8 8 9 10 11 12 13 14 15 16 18 19 19 19 19 17 15 16 20 22 22 19 16 15 18 20 20 19 19 18 18 18 18 17 18 20 21 20 19 18 15 13 12 12 11 11
17 19 22 23 21 19 20 22 24 25 27 29 29 27 26 25 24 23 23 23 21 20 19 19 19 18 16 15 13 11 9 7 5 3 1 2 4 6 9 10 11 12 11 12 15 17 19 20 20 20 21 21 21 20 17 16 19 22 24 24 21 17 18 21 20 19 19 20 20 20 21 20 20 20 21 22 21 21 19 16 14 12 11 9 10
17 18 21 22 22 20 19 21 22 22 23 25 27 27 26 26 25 24 23 23 23 24 23 21 19 19 18 16 14 11 9 7 7 5 3 3 3 6 10 13 14 15 17 20 25 27 26 25 24 24 24 23 22 21 19 18 19 21 22 23 20 17 18 19 19 19 21 22 23 22 22 22 21 21 21 21 21 20 19 17 15 13 11 10 9
18 19 19 22 24 23 21 23 23 21 20 21 21 23 24 25 26 26 26 26 28 26 22 19 19 19 18 17 16 14 11 9 8 8 7 6 6 7 11 14 17 21 25 27 28 27 27 27 26 24 24 23 22 22 21 20 20 21 21 20 17 16 17 20 21 22 23 23 22 20 19 19 19 18 18 19 20 19 17 15 14 13 12 11 10
18 18 19 20 24 25 24 24 23 21 21 20 20 21 22 21 24 26 27 28 28 24 19 17 17 18 17 16 16 16 15 13 12 12 11 10 11 13 18 21 24 27 27 23 20 21 23 26 26 24 24 23 22 21 22 21 20 19 18 17 17 19 21 22 22 23 23 20 19 17 15 15 16 16 15 15 16 17 14 13 13 12 12 12 12
14 15 16 18 21 24 24 24 24 23 22 22 22 24 24 23 25 26 25 24 22 20 17 17 20 23 23 21 19 19 19 17 16 15 14 16 18 21 24 26 27 27 23 18 18 21 24 26 26 24 23 23 21 21 21 21 20 19 19 20 21 22 22 22 22 22 20 17 15 15 14 14 14 15 15 14 13 13 12 11 11 11 11 11 11
12 12 14 15 18 21 21 21 22 23 24 25 27 28 28 28 27 25 23 22 23 22 19 20 25 27 25 22 20 20 21 20 19 18 17 19 21 22 22 23 24 24 24 23 23 24 24 25 25 23 23 22 22 22 21 20 20 21 21 22 22 22 22 22 23 21 18 15 14 14 13 13 13 14 15 15 13 13 13 12 11 12 11 10 9
7 6 7 9 12 15 17 17 16 19 24 27 28 31 33 32 30 27 25 25 27 28 26 25 26 25 23 21 20 20 22 22 21 20 20 20 21 21 22 22 23 23 24 24 24 23 23 24 25 24 24 24 24 24 23 23 22 22 22 22 22 22 21 22 22 20 16 13 12 12 11 10 11 14 15 16 15 16 15 13 12 12 12 10 9
8 8 7 4 3 6 9 10 11 12 14 14 17 22 28 30 29 28 28 29 29 29 30 28 25 24 24 24 22 20 20 21 20 20 21 21 21 22 23 23 22 22 22 23 24 25 25 25 25 25 25 25 25 25 24 24 23 23 23 22 21 21 20 20 21 20 17 14 13 12 11 10 10 10 12 13 14 15 15 13 12 12 12 10 9
15 17 18 17 16 16 16 18 22 24 23 21 19 16 18 25 30 27 25 29 31 31 30 30 28 27 26 27 26 21 17 18 19 18 19 20 21 23 24 23 22 22 23 25 27 26 25 25 24 24 25 25 25 25 24 24 23 22 22 21 20 20 19 18 18 17 15 14 13 12 11 11 9 8 9 10 11 13 13 12 11 11 10 9 8
19 21 24 25 26 27 27 27 31 34 35 34 31 24 18 24 34 33 27 28 33 34 34 33 31 29 26 26 27 24 18 17 17 16 17 18 20 22 22 21 21 22 24 26 28 26 23 21 21 23 25 25 24 23 22 22 22 20 19 17 16 16 15 13 12 12 12 11 10 9 9 9 9 9 9 9 9 10 11 11 9 9 9 8 8
23 24 26 28 30 31 31 31 33 36 38 39 40 34 26 26 35 39 35 31 31 33 35 34 31 28 25 24 24 22 18 17 16 16 16 17 18 19 20 20 21 23 24 26 26 23 19 17 17 19 20 20 18 17 16 16 16 15 13 12 11 11 11 10 10 10 11 10 9 9 9 9 10 10 10 10 9 9 9 10 9 9 9 9 9
25 26 28 30 32 32 33 32 32 36 38 38 40 39 33 31 34 36 34 31 28 27 30 31 28 25 24 23 22 19 16 15 14 14 15 15 16 18 19 20 21 22 23 24 22 18 16 16 15 14 14 14 14 13 12 12 12 11 10 10 10 10 11 11 11 10 10 9 9 9 9 9 9 9 9 9 9 8 8 8 9 10 10 10 10
24 26 27 30 32 34 34 33 32 35 38 37 36 35 34 34 33 30 28 27 25 25 27 28 27 24 23 23 22 20 18 16 15 15 14 14 15 17 19 21 22 23 24 23 19 15 15 15 15 13 12 13 12 11 11 11 10 10 10 10 10 10 11 11 11 10 9 9 8 8 8 8 7 7 7 7 8 7 8 8 9 11 11 10 11
23 23 24 26 30 32 32 32 31 31 33 33 33 32 32 33 33 31 27 25 25 26 27 27 25 25 25 24 23 22 21 19 18 17 16 16 17 19 21 23 25 26 25 21 17 16 15 15 14 13 12 12 12 11 11 11 10 10 10 10 10 10 10 10 10 9 9 8 7 7 6 6 6 6 6 6 7 7 7 8 9 11 11 11 11
25 24 24 25 28 30 30 30 29 27 27 28 29 28 28 29 31 31 28 25 26 28 29 27 25 25 25 24 23 23 22 20 19 19 18 19 20 23 26 27 26 25 22 18 17 16 15 14 13 12 12 12 12 12 12 11 11 11 11 10 10 9 9 9 9 8 7 7 6 6 6 6 6 6 6 7 7 7 7 9 10 11 12 11 11
25 24 24 24 25 25 26 26 26 26 26 26 24 23 22 22 24 24 23 23 27 31 31 29 26 25 25 24 24 23 22 22 21 20 20 20 21 24 27 25 22 20 21 20 18 16 14 13 13 12 12 12 12 12 12 11 10 10 9 9 8 8 8 8 7 7 6 5 5 6 6 5 6 6 6 7 8 8 9 10 10 11 11 11 11
21 19 19 21 21 22 22 23 23 23 23 21 19 19 20 20 21 22 23 26 30 33 32 30 28 26 25 24 23 22 22 22 22 23 23 23 23 25 26 23 19 18 19 19 19 18 16 15 14 13 13 13 12 12 12 11 11 10 9 8 7 7 6 6 5 5 5 5 5 6 6 7 8 8 7 8 9 9 9 10 10 10 10 11 10
22 21 21 23 24 22 21 20 20 19 19 19 19 19 20 20 21 22 23 24 26 27 27 27 27 26 24 22 21 21 21 21 22 23 23 23 23 25 26 24 21 20 19 18 18 19 18 16 15 14 14 13 13 12 12 11 11 10 10 9 8 7 6 6 7 6 5 5 6 7 7 8 9 9 9 8 9 9 9 10 10 9 10 10 10
24 25 26 26 24 21 20 20 21 22 23 22 21 20 20 20 20 20 20 19 20 20 20 22 24 24 22 21 20 19 19 19 19 20 20 20 21 23 25 24 23 22 20 19 19 20 19 18 17 16 15 14 14 13 12 11 10 9 8 8 7 7 7 7 8 8 7 7 7 8 8 8 8 8 8 8 8 9 9 9 10 10 10 10 10
25 25 26 25 24 23 23 24 25 26 25 23 21 21 21 20 19 19 18 18 17 16 16 18 19 20 19 19 19 18 18 19 19 20 20 21 22 23 24 24 23 23 21 20 20 20 20 19 18 17 16 15 14 12 11 9 8 8 7 6 6 7 7 7 7 8 8 8 8 8 8 8 7 7 7 8 9 9 9 10 10 10 11 11 11
25 24 23 23 22 22 24 25 25 24 23 23 22 21 20 20 19 19 19 18 17 17 17 18 18 17 17 18 17 18 20 21 21 21 22 22 22 23 23 24 24 23 23 22 21 20 20 19 18 17 16 14 12 11 9 8 7 7 7 7 6 7 7 7 8 8 8 8 8 7 7 7 7 7 8 9 9 9 9 10 10 10 10 10 11
25 25 23 23 22 21 20 21 21 22 24 25 24 23 22 21 22 23 22 22 22 22 22 21 19 17 16 16 15 16 20 22 21 21 22 23 23 23 24 24 24 24 23 22 21 20 19 18 17 15 14 12 11 10 9 8 7 7 7 7 7 7 7 8 8 8 7 7 7 7 7 8 8 8 9 9 9 9 9 9 9 9 10 10 10
23 23 23 23 22 20 17 17 19 23 25 24 23 25 25 25 25 26 25 24 25 25 24 22 20 18 16 15 13 15 20 23 23 23 23 23 24 24 24 23 23 22 21 21 20 19 18 17 15 13 12 11 10 9 9 8 8 8 8 8 8 7 7 7 7 7 7 7 7 8 8 8 8 8 8 9 8 9 9 9 9 9 9 9 10
19 19 19 20 20 19 17 17 19 20 20 21 22 25 27 27 27 27 27 25 24 23 22 21 20 18 17 15 15 18 21 23 24 24 24 24 24 23 23 22 21 20 19 18 17 16 15 15 14 13 12 11 11 10 10 9 8 8 8 8 8 7 6 5 5 6 6 7 7 8 8 8 8 8 8 8 8 8 8 9 9 9 10 10 10
18 18 18 19 21 21 20 18 17 16 18 22 24 26 27 27 27 27 27 25 23 22 21 20 19 19 18 17 18 20 21 22 22 23 23 23 22 22 21 20 19 18 17 16 15 14 14 14 13 13 13 13 12 12 11 10 10 9 8 8 7 6 6 5 5 5 6 7 7 7 8 8 8 8 7 7 7 8 8 9 10 10 10 10 11
17 18 18 20 21 20 19 18 18 19 21 22 23 23 24 25 25 24 24 23 21 19 18 18 17 17 17 17 18 18 19 19 19 20 20 20 19 19 18 17 17 16 15 15 14 13 13 13 13 13 13 13 13 14 13 13 13 11 9 7 7 7 6 5 5 5 6 6 6 7 7 7 7 8 8 7 8 8 9 9 10 10 10 10 11
15 16 18 20 21 21 20 20 20 21 21 22 22 21 20 20 20 20 20 19 18 17 16 15 15 14 14 14 15 15 15 15 15 16 16 16 15 15 15 15 15 14 13 13 13 12 13 13 13 13 13 14 14 15 14 14 13 12 11 10 9 8 7 6 5 5 5 6 6 6 7 7 8 8 9 8 8 9 9 10 10 10 10 10 10
14 15 18 20 21 22 22 21 22 22 21 21 20 19 18 17 18 19 19 19 18 16 15 13 13 12 12 12 12 12 12 12 13 13 14 14 14 13 13 13 13 12 12 12 11 12 12 12 13 14 15 15 15 14 13 11 11 12 12 12 11 10 9 8 6 5 5 5 6 7 7 8 9 9 9 9 9 9 9 10 9 10 10 10 10
12 14 17 20 22 22 20 20 21 22 21 21 21 22 21 21 21 21 21 21 19 17 15 13 12 12 11 11 11 11 12 12 12 12 12 12 12 12 13 12 12 11 11 11 11 11 12 12 13 14 14 14 13 12 11 10 10 10 11 11 12 13 12 11 8 6 5 6 7 7 8 8 9 9 9 9 9 8 9 9 9 10 10 10 10
11 13 16 19 21 21 21 22 23 25 25 25 26 26 25 24 23 22 21 19 17 15 13 13 12 11 11 11 11 11 11 12 12 12 11 12 12 12 12 12 11 11 10 10 10 11 11 12 12 11 11 11 10 9 9 8 8 7 7 9 10 11 12 12 11 10 9 8 7 7 8 8 8 8 8 8 8 8 8 9 10 10 10 10 10
12 13 16 19 20 21 23 25 26 27 27 28 28 27 25 24 23 21 19 16 14 13 12 11 11 11 11 11 11 11 11 11 11 11 11 11 11 11 11 11 11 10 10 10 10 10 10 10 10 10 10 9 8 8 7 6 6 6 6 7 8 9 10 11 11 12 12 11 8 7 6 6 7 7 7 7 7 8 8 9 9 9 9 10 10
14 16 17 18 19 20 22 24 25 26 27 27 27 26 25 23 22 20 18 16 13 12 12 11 11 10 10 10 10 10 10 10 10 10 11 11 11 11 11 11 11 10 10 10 10 9 9 9 9 9 8 8 7 6 5 5 5 5 6 7 8 9 9 9 9 10 11 11 10 8 6 6 6 6 7 7 7 8 8 8 9 9 9 9 9
Wind_Direction
216 220 221 220 222 224 225 226 226 226 228 230 230 231 235 240 244 249 255 259 257 251 250 252 252 253 254 255 256 258 261 262 262 264 268 272 275 273 267 266 267 266 266 266 267 270 272 274 276 278 281 279 280 286 287 284 285 285 281 278 283 276 266 272 282 296 305 310 316 320 329 334 332 332 336 336 335 337 338 337 340 344 341 336 335
217 221 222 223 225 226 225 225 225 225 223 224 228 230 233 239 244 249 252 255 253 250 250 252 254 258 260 261 261 262 265 268 269 269 270 273 275 273 268 267 268 266 265 265 265 268 271 271 272 276 280 278 278 281 277 274 277 276 269 272 276 266 257 274 286 297 307 315 319 321 328 332 330 332 334 332 332 334 335 335 336 338 338 337 330
218 224 225 226 228 227 225 224 225 224 223 224 228 230 233 237 242 246 246 247 248 247 247 249 256 265 267 266 267 269 273 276 276 273 272 273 273 270 265 266 268 266 265 263 261 262 268 273 278 283 285 279 275 276 273 269 268 264 253 252 264 259 251 275 292 302 312 320 324 324 329 333 330 331 333 332 333 334 334 337 337 339 340 338 333
221 226 226 226 227 226 226 226 224 223 223 226 229 231 233 235 239 242 242 242 243 243 245 249 259 267 269 270 273 276 280 281 280 276 273 272 273 271 269 269 270 269 267 263 266 282 298 303 303 303 305 298 285 277 272 264 254 253 250 244 257 280 294 304 310 315 317 319 324 327 329 330 329 331 335 336 336 336 337 339 339 337 336 335 332
221 224 224 222 221 222 226 226 225 224 225 227 229 231 233 234 237 240 240 239 239 239 244 252 260 266 269 273 276 279 281 282 279 276 273 272 273 272 271 271 272 273 272 273 286 295 288 285 283 286 296 297 290 283 272 259 254 256 264 278 298 308 319 329 328 327 323 322 324 327 329 332 332 336 346 345 338 335 336 336 334 330 328 328 328
221 222 220 218 218 220 223 224 225 226 228 230 231 231 232 234 235 238 237 237 238 237 242 254 261 265 269 273 275 278 280 280 279 276 274 276 277 274 272 272 274 277 277 276 276 270 262 262 263 260 258 266 274 276 266 254 252 248 251 278 306 317 324 333 334 329 327 326 327 329 334 340 338 340 349 345 336 333 335 335 335 336 334 334 336
224 226 221 217 219 221 221 222 225 226 229 234 236 233 232 233 235 236 235 235 236 236 240 252 261 266 268 270 271 275 280 281 279 279 281 282 280 277 276 275 276 278 274 269 269 267 263 263 262 256 248 241 244 249 247 240 233 228 236 264 300 322 325 329 333 333 333 332 333 337 340 343 345 344 345 345 343 343 343 340 343 350 350 347 348
223 227 224 218 220 223 223 222 223 226 231 236 239 237 234 234 234 235 235 233 236 236 236 246 257 263 265 266 267 275 281 280 277 281 287 287 285 284 281 277 275 271 262 265 267 261 257 256 256 255 250 240 236 232 225 220 217 217 226 243 296 322 325 332 342 348 346 343 344 348 348 351 356 353 350 355 356 353 351 348 349 355 356 357 4
219 222 223 223 226 228 228 226 225 230 233 235 238 239 238 236 234 233 234 235 237 237 236 241 248 253 259 262 264 272 278 277 278 283 286 288 289 284 278 278 276 258 248 260 264 259 255 254 254 253 244 233 235 233 224 219 213 205 203 224 310 329 343 358 9 9 0 358 0 0 1 5 7 2 360 4 1 353 354 354 354 357 356 0 17
222 220 222 227 231 232 231 230 230 231 234 235 237 238 238 236 232 231 233 235 236 234 235 241 243 243 250 257 262 269 273 276 280 278 273 274 274 270 270 278 274 254 250 257 260 259 259 258 256 250 233 223 227 228 223 220 211 199 195 203 356 22 35 39 40 31 18 20 21 16 15 14 11 3 357 359 1 358 357 352 350 353 355 3 21
226 223 224 229 233 233 232 232 231 232 232 233 235 236 237 235 232 232 232 233 234 234 236 240 242 240 241 250 256 262 266 270 273 271 269 267 262 259 264 266 259 254 255 256 255 254 255 256 249 225 205 200 206 211 211 213 207 200 207 196 75 66 71 68 57 47 44 47 41 33 28 17 8 2 355 353 356 356 352 346 346 352 2 17 27
230 227 227 229 230 231 230 229 230 231 231 232 233 234 235 234 233 233 233 231 232 234 235 235 239 241 241 246 248 246 253 262 265 263 264 262 255 254 257 254 252 258 259 255 253 252 247 234 221 209 200 191 191 204 206 197 184 155 116 89 78 81 92 96 88 73 66 67 59 48 40 27 15 10 5 0 358 355 352 350 355 7 24 36 36
234 232 230 228 228 228 228 227 227 229 231 232 232 231 231 231 233 232 231 230 228 230 233 234 238 242 241 242 242 236 243 255 258 254 257 261 257 255 259 259 253 254 256 254 251 246 233 223 219 216 213 204 201 203 173 135 120 104 91 85 77 74 79 89 95 91 82 79 73 60 50 42 33 23 17 17 16 10 6 5 10 29 50 52 41
242 238 235 230 228 228 227 226 226 228 230 230 229 227 226 229 231 230 228 225 224 229 233 232 235 239 238 237 238 238 243 248 247 244 247 252 249 245 249 249 240 244 253 255 249 234 213 213 214 215 215 204 189 171 134 114 104 94 91 91 85 77 76 80 84 85 81 78 74 66 58 53 44 35 34 39 37 29 24 21 19 30 55 59 46
245 244 241 235 231 229 227 226 226 226 226 226 225 223 224 225 226 226 224 223 225 231 232 228 229 235 235 233 232 235 241 245 245 239 233 233 233 229 227 228 229 235 238 228 226 222 213 213 210 210 209 184 151 142 136 125 114 108 105 98 90 87 88 86 84 87 87 84 78 71 66 62 56 51 52 53 51 43 39 37 28 27 45 55 46
248 245 244 241 235 230 227 225 225 223 221 220 219 219 220 220 221 225 227 228 229 230 228 225 227 229 228 227 227 230 236 242 243 240 234 225 213 207 211 216 214 203 194 198 208 210 211 204 196 194 183 156 143 143 143 137 126 118 112 103 95 92 93 93 92 92 92 89 86 81 76 71 66 63 60 56 51 42 36 36 31 29 36 38 35
258 251 247 244 240 235 230 226 223 221 219 218 217 218 219 220 220 222 224 226 228 226 223 221 220 218 218 219 220 221 226 234 237 238 240 230 202 196 203 197 176 171 172 167 154 148 161 179 181 170 147 136 136 138 136 131 125 120 113 108 105 100 96 96 95 93 92 91 90 86 82 76 69 63 57 53 48 41 37 36 27 23 28 28 22
263 257 251 246 242 238 233 229 226 222 219 219 217 217 220 221 219 218 217 218 219 217 213 207 200 199 204 206 206 208 211 218 227 234 239 224 191 181 178 162 148 143 133 123 123 126 126 134 140 133 126 125 129 133 133 128 123 120 116 113 111 106 100 99 98 98 98 94 90 85 79 73 68 61 55 51 49 47 46 41 30 24 30 28 15
257 256 252 248 244 239 235 233 229 222 218 218 216 215 215 216 215 215 212 208 204 198 193 187 181 184 191 191 189 193 193 194 205 220 231 213 187 176 168 154 141 132 125 118 116 118 121 127 132 132 131 131 131 128 126 123 123 123 120 116 110 105 106 107 103 100 97 91 85 81 76 71 67 63 58 55 55 56 54 46 36 34 36 31 20
259 257 255 250 245 241 237 233 229 223 219 217 215 214 212 212 212 208 199 194 191 186 182 180 176 176 176 172 168 170 170 161 149 140 136 170 186 184 174 161 146 134 125 118 118 123 128 130 130 128 126 125 122 120 121 123 124 122 119 114 110 108 109 106 101 97 92 88 83 79 75 72 68 64 60 58 57 58 56 49 42 38 36 31 25
264 258 255 250 243 238 233 230 228 224 220 218 215 212 211 211 209 200 189 184 181 177 175 172 164 157 154 150 145 143 143 137 123 109 101 117 158 184 177 168 157 142 131 127 127 128 129 127 125 124 125 125 124 126 128 128 123 119 115 113 113 114 111 104 100 97 92 87 83 77 73 70 66 61 57 56 56 55 52 49 45 40 37 32 22
275 263 255 248 242 236 229 227 227 224 220 216 210 207 209 209 204 196 186 178 173 168 165 160 151 142 137 135 132 128 125 123 119 115 114 125 151 170 162 156 152 142 133 130 129 129 129 128 126 126 127 126 125 126 127 126 123 120 116 114 116 118 113 107 104 99 91 85 80 73 67 63 61 56 52 53 55 54 49 47 47 45 44 43 35
285 271 257 246 242 238 231 225 223 220 215 210 204 200 198 196 192 185 176 169 164 159 154 147 139 129 121 120 123 125 124 123 121 121 122 128 138 144 141 140 142 139 133 129 128 127 128 130 130 128 125 123 123 125 126 125 123 120 118 120 123 120 114 108 102 95 89 82 75 69 62 57 54 51 47 45 47 47 44 41 43 43 43 45 43
288 274 258 246 240 237 232 225 220 216 210 201 195 192 189 184 181 175 168 162 154 147 145 141 130 122 119 120 121 123 126 128 127 125 128 132 137 140 140 141 143 139 132 128 130 130 131 133 132 128 125 124 125 126 124 121 120 120 122 124 122 117 111 104 98 92 86 79 73 68 62 57 52 49 46 41 37 38 36 34 36 35 33 37 38
279 271 257 246 237 232 228 224 219 213 204 197 192 188 181 176 172 167 161 153 142 134 134 134 127 123 122 122 122 122 125 127 128 128 130 134 140 144 142 141 142 140 135 133 134 134 133 134 132 128 128 129 128 126 122 120 121 123 124 122 117 110 106 101 96 91 84 79 77 72 65 60 55 49 46 42 36 32 30 27 27 25 22 24 28
284 282 263 247 235 224 217 213 207 197 193 194 193 185 177 171 166 160 152 144 137 132 130 128 126 122 121 122 123 123 124 124 125 127 129 132 136 139 137 134 134 134 133 132 133 132 132 133 132 130 131 131 128 124 120 119 120 119 117 114 109 105 102 99 95 92 87 82 79 75 68 62 54 47 44 40 36 32 28 22 17 16 14 14 16
65 67 71 80 133 174 176 163 144 139 150 159 163 166 166 161 153 147 142 136 131 128 128 127 125 121 121 122 121 120 124 128 131 134 134 134 137 137 135 133 131 128 126 127 131 132 132 132 132 132 132 130 127 123 120 119 118 116 114 111 107 103 101 98 96 96 94 90 84 77 68 58 48 40 37 34 31 29 25 19 14 11 7 6 9
78 80 82 86 88 91 97 103 103 101 99 97 97 110 131 133 127 123 127 129 127 124 123 122 120 120 123 123 121 121 126 131 135 141 143 144 146 145 140 135 132 130 129 130 132 132 131 131 132 132 131 128 124 121 119 118 117 115 113 112 110 107 104 99 96 95 92 86 78 68 57 49 40 31 27 26 25 22 19 16 11 6 1 1 7
79 81 84 88 90 89 88 89 94 97 96 93 87 78 84 110 115 112 111 116 119 119 117 116 117 121 125 124 122 126 132 132 136 147 151 151 152 151 147 142 137 136 137 137 135 133 131 130 129 127 126 124 120 116 114 114 113 111 109 106 105 104 99 92 87 82 76 70 61 50 42 36 29 22 18 16 14 13 13 11 4 359 359 1 7
82 84 87 88 90 90 89 88 91 93 94 94 93 88 82 92 103 106 106 108 113 116 116 115 116 122 126 124 121 124 131 138 146 156 159 159 159 157 155 150 142 140 143 142 138 134 131 128 125 124 125 123 117 112 110 109 108 106 101 95 91 89 84 77 70 66 61 56 48 39 32 25 19 14 10 8 5 3 4 5 1 360 1 3 6
84 86 90 92 92 91 90 90 93 94 94 95 97 97 94 90 93 99 104 108 112 115 115 114 116 117 118 117 116 118 124 134 144 151 157 163 166 167 168 165 156 151 150 145 138 133 131 126 122 121 121 116 112 110 110 109 107 104 98 91 83 79 77 74 69 62 54 47 39 31 25 18 11 7 3 0 357 356 358 1 4 5 4 3 3
87 90 92 94 95 94 94 94 94 96 97 97 97 98 97 93 90 93 101 108 113 114 112 112 113 112 108 107 110 114 117 120 123 127 133 140 147 156 165 168 164 159 154 145 136 131 129 124 122 120 115 109 108 110 109 108 105 101 97 90 82 78 79 77 71 60 50 41 33 25 19 12 2 358 357 354 352 354 360 4 6 5 2 359 358
91 93 93 93 93 95 97 98 97 97 100 102 102 102 102 101 100 100 102 107 110 110 109 108 108 109 108 108 109 112 114 116 119 121 124 127 130 135 141 146 150 152 149 141 130 125 123 121 120 119 114 110 109 107 104 103 101 97 94 91 86 83 79 73 64 55 45 38 30 19 10 2 357 352 352 355 355 358 5 7 5 3 360 357 355
95 95 95 94 94 96 99 101 100 100 102 105 107 108 109 111 110 108 106 102 98 98 100 103 106 109 110 112 113 115 117 120 122 124 126 128 130 134 136 138 142 145 141 130 121 119 119 117 115 112 110 108 108 106 103 101 100 97 94 91 87 82 73 63 55 47 39 31 24 16 7 1 0 357 357 2 4 5 10 10 5 2 0 355 352
95 95 96 96 96 99 102 103 104 106 107 107 107 108 109 109 107 105 103 99 93 91 93 98 104 109 112 113 115 117 118 120 122 126 130 133 136 139 137 133 131 132 129 123 119 116 114 111 109 106 106 106 106 105 105 103 99 97 94 90 83 74 62 52 44 39 36 28 18 13 9 7 7 4 5 11 12 11 11 7 3 1 359 354 349
98 95 95 96 99 103 106 107 109 110 110 108 107 108 108 106 102 99 98 97 96 94 94 95 99 104 109 113 116 118 120 121 124 127 131 135 140 141 134 124 117 117 117 118 119 117 112 108 107 106 107 107 106 106 106 103 100 98 94 88 79 67 57 48 40 35 33 28 23 19 18 19 18 14 12 14 14 11 7 2 359 358 357 353 349
107 104 103 105 107 107 107 108 110 111 109 107 106 106 104 102 100 99 97 96 96 95 95 97 99 100 102 106 113 118 122 125 128 129 132 137 141 138 130 123 119 115 110 110 116 118 115 112 112 111 110 108 107 106 104 101 99 95 88 82 77 71 62 54 47 42 35 30 28 27 26 25 22 17 13 11 9 7 4 2 359 357 356 355 353
114 114 114 113 112 110 108 109 112 114 112 109 106 104 101 98 97 97 96 95 94 93 94 98 101 102 102 105 112 118 122 126 128 128 129 132 132 128 125 122 121 117 113 112 116 118 117 116 115 114 111 109 107 104 100 97 94 89 84 80 75 68 60 51 44 42 40 35 32 32 29 25 20 15 12 10 8 7 7 4 2 359 357 356 356
114 117 118 118 116 116 116 117 118 117 115 110 106 105 103 100 98 97 97 96 94 92 93 95 98 103 109 113 117 121 122 119 116 115 116 119 122 123 123 122 120 119 117 117 118 118 118 117 116 114 112 110 107 103 99 95 91 87 83 79 71 61 55 48 42 41 40 37 35 32 27 21 18 14 13 13 11 9 7 4 3 2 357 356 356
118 119 120 120 118 120 122 123 122 120 117 115 112 109 106 104 103 104 103 101 98 96 98 99 102 108 115 118 122 124 119 112 109 111 114 115 117 119 121 121 121 122 122 121 120 119 118 118 118 117 114 110 107 103 99 93 87 82 77 73 68 61 54 49 45 44 42 38 34 29 24 22 20 20 19 17 13 10 7 3 2 1 357 356 355
126 127 128 127 126 126 125 123 123 125 125 123 121 117 113 111 111 111 109 106 105 103 102 102 104 108 112 115 120 123 120 114 112 112 114 116 118 119 119 120 121 122 123 123 122 121 120 119 118 115 112 108 104 100 95 90 85 80 74 70 66 60 55 51 48 47 43 38 34 31 28 26 24 22 21 17 12 10 8 4 2 2 0 358 357
129 129 132 132 131 128 124 124 128 131 130 126 123 123 122 120 117 115 111 108 107 106 104 103 103 105 109 112 117 121 120 118 116 115 115 117 118 119 119 121 122 122 123 124 125 125 124 121 117 114 111 107 102 96 90 86 82 78 73 70 65 60 57 54 52 52 47 40 37 36 31 28 27 24 21 17 13 12 12 9 8 8 6 4 4
126 131 138 139 137 134 132 131 130 129 127 125 125 126 126 123 120 118 115 112 110 109 107 107 107 108 110 114 119 120 118 117 116 117 116 117 117 118 119 121 122 122 123 124 125 126 125 122 118 115 111 105 100 95 89 85 83 81 76 72 67 62 59 57 55 52 46 40 39 37 32 28 27 25 20 17 15 15 14 13 11 11 10 9 10
132 139 147 148 144 141 138 134 128 124 127 130 130 129 127 124 122 120 118 116 114 112 110 111 113 113 114 115 118 118 115 114 115 116 117 117 118 119 120 122 122 122 123 123 125 125 123 120 116 112 107 102 99 97 93 91 88 84 78 73 68 62 56 54 54 52 46 42 41 37 33 29 28 23 18 16 15 14 13 12 11 10 9 5 3
136 138 143 144 143 139 137 136 133 131 131 131 128 127 126 124 122 120 119 117 115 113 112 113 116 117 117 117 117 115 114 114 115 116 117 118 118 118 120 122 123 122 120 120 120 119 116 115 113 111 107 104 101 100 98 95 90 84 77 71 66 58 50 49 56 58 53 48 44 38 32 28 25 21 17 14 13 12 10 9 7 6 5 358 354
137 138 140 142 142 142 142 142 141 137 134 131 128 125 124 122 120 120 120 118 116 115 114 115 117 117 117 116 116 115 114 114 115 115 116 117 117 118 120 121 120 118 116 116 118 119 118 118 117 114 111 110 107 103 98 91 84 78 73 67 62 55 50 56 69 71 61 52 45 38 29 24 22 20 18 16 14 11 8 5 3 0 358 353 350
145 145 144 144 145 146 146 146 144 139 135 132 130 127 124 123 123 123 124 124 121 119 117 118 119 119 119 118 118 117 116 115 116 117 119 120 121 122 123 122 120 117 116 116 117 119 120 120 118 116 116 114 110 104 97 89 83 78 73 68 63 59 60 68 77 75 63 51 41 32 26 22 20 17 15 13 12 8 4 2 358 353 351 350 348
153 153 150 149 148 147 145 144 143 140 136 134 134 133 132 131 130 130 131 130 127 124 123 123 123 123 124 123 122 121 120 120 121 121 122 124 124 125 126 125 123 121 120 118 117 118 118 119 118 119 119 116 110 105 100 96 90 84 77 72 67 63 64 67 68 59 47 41 33 26 24 20 17 15 13 10 8 6 3 359 356 351 349 349 349
161 160 156 152 150 149 148 148 147 144 141 141 140 139 138 137 136 136 135 133 129 127 127 129 129 130 130 129 127 126 125 124 124 125 125 126 127 128 128 127 125 122 120 117 115 117 120 121 122 122 122 120 116 114 110 104 98 93 84 73 65 59 56 55 52 45 38 32 23 19 19 17 12 10 9 6 5 5 4 0 358 355 351 349 349
167 165 160 157 154 153 152 151 149 147 147 146 145 143 143 143 142 140 138 135 132 131 131 132 134 135 135 134 132 130 129 128 128 128 128 128 128 128 127 125 123 121 119 119 121 124 127 128 129 129 130 131 128 125 122 116 110 101 84 66 57 49 44 40 38 36 34 31 25 15 12 11 8 6 3 0 360 2 1 358 356 354 350 348 350
170 166 162 159 156 153 153 153 152 153 152 151 149 149 149 147 147 147 144 140 137 137 138 138 140 141 141 141 140 138 136 135 133 132 131 129 129 130 130 130 129 129 128 128 131 134 135 137 139 139 140 143 143 142 140 135 120 101 79 61 53 47 40 35 30 26 28 32 31 20 6 0 358 356 355 353 350 349 348 347 346 345 342 342 344
Height
810 811 812 814 815 816 818 819 821 823 825 826 828 829 830 831 832 834 834 835 836 836 837 838 839 840 841 841 842 842 842 842 842 842 842 843 843 843 843 843 844 844 844 844 844 844 844 843 843 843 842 842 841 841 841 840 840 839 839 839 839 839 839 838 837 836 835 834 833 832 831 830 829 828 827 826 825 824 822 821 820 819 818 817 816
808 809 810 812 813 814 816 817 819 821 822 824 825 826 828 829 830 831 832 833 834 835 836 837 837 838 839 839 840 840 840 840 840 841 841 841 841 842 842 841 842 842 842 842 842 843 843 842 842 841 841 841 840 840 839 839 839 838 838 838 838 837 837 837 836 835 834 833 832 832 831 830 829 828 826 825 824 822 821 820 819 818 817 816 815
805 806 808 809 811 813 814 816 817 818 820 821 822 824 825 826 827 829 830 831 832 833 834 835 836 836 837 837 837 838 838 838 839 839 839 839 839 839 840 839 839 840 840 840 840 841 841 841 841 841 840 840 839 839 838 838 837 837 837 837 836 836 836 836 835 834 833 832 832 831 830 829 828 827 826 825 823 822 820 819 818 817 816 815 814
801 803 806 807 809 811 812 813 815 816 817 818 820 821 823 824 825 826 828 829 830 831 832 833 833 834 834 835 835 836 836 836 837 837 837 837 837 837 837 837 837 838 838 838 839 841 842 842 842 842 841 841 840 839 838 838 837 836 836 836 835 835 835 834 834 834 833 832 831 831 830 829 828 827 825 824 823 821 820 819 818 817 816 815 814
798 800 802 805 806 808 809 811 812 813 814 815 817 818 820 821 822 823 825 826 827 829 829 830 831 831 832 833 833 834 834 835 835 835 835 835 835 835 835 835 835 836 837 838 838 840 840 840 840 839 839 840 840 839 838 837 837 836 836 835 835 834 834 833 833 833 832 832 831 830 829 828 827 826 825 824 823 821 820 819 818 817 815 814 813
796 797 799 801 803 805 806 808 809 810 811 812 814 815 817 818 819 820 822 823 824 826 826 827 828 829 829 830 831 831 832 833 833 833 834 834 834 834 833 834 834 835 836 836 836 836 836 836 837 836 836 837 838 839 838 837 836 836 835 835 834 834 833 833 832 832 831 831 830 829 829 828 827 826 825 824 823 821 820 819 818 816 815 813 812
795 796 797 798 800 801 803 804 806 807 808 809 810 812 813 815 816 817 819 820 821 823 824 824 825 826 827 827 828 829 830 830 831 833 835 835 834 833 833 833 833 834 834 834 833 834 834 834 835 834 834 833 834 836 836 836 835 835 834 834 834 833 833 832 832 831 830 830 829 829 828 828 828 827 826 825 824 822 821 819 817 816 815 813 811
793 794 795 796 797 797 799 801 802 804 805 806 807 809 811 812 813 815 816 817 818 820 821 822 822 823 824 825 826 827 828 828 830 832 834 834 833 833 833 832 833 833 832 831 831 830 830 830 830 831 831 831 832 833 833 833 833 833 833 833 833 832 832 831 831 830 830 829 829 829 829 828 828 827 826 825 824 823 822 820 818 816 815 813 812
790 792 793 793 794 794 796 798 799 801 802 803 805 806 808 809 811 812 814 815 816 817 818 819 820 821 821 822 824 824 825 826 827 829 830 830 830 831 832 832 832 832 830 828 828 828 828 828 828 829 829 830 831 832 832 832 832 832 832 832 832 831 831 831 830 830 830 829 829 829 829 828 828 828 827 825 825 824 822 821 818 817 815 813 812
787 789 789 790 791 792 793 794 796 797 799 800 802 803 805 806 808 809 810 812 813 814 815 816 818 818 819 820 821 822 822 823 823 825 826 826 827 828 830 831 830 830 828 827 827 827 827 827 828 828 829 829 830 830 830 831 831 831 831 831 831 831 831 831 831 830 830 830 830 830 829 829 829 828 827 826 825 824 823 821 819 817 816 814 813
784 785 786 786 788 789 790 791 793 794 795 797 799 800 802 803 805 806 807 809 810 811 813 814 814 816 816 817 818 819 819 820 820 821 822 824 826 828 829 829 828 829 828 826 825 826 826 827 828 828 829 830 830 830 831 831 830 831 831 831 831 831 831 831 831 831 831 830 831 831 831 830 830 829 828 826 825 825 823 822 820 818 816 815 814
781 782 782 783 785 786 787 788 790 791 792 793 795 797 799 801 802 803 804 805 807 808 810 811 811 813 814 814 816 816 816 816 817 819 820 823 825 826 825 824 824 826 827 825 824 824 824 826 827 828 828 829 830 830 831 831 830 830 831 831 831 831 831 832 832 832 832 832 833 833 833 832 831 830 829 827 826 825 823 822 821 819 818 817 817
778 779 779 780 781 782 784 785 786 788 789 790 792 793 795 797 798 800 801 802 804 805 806 808 809 810 811 812 813 813 813 814 815 817 818 819 821 822 822 821 822 825 826 825 824 823 823 824 825 826 827 827 827 829 831 832 832 832 832 832 833 833 832 832 832 833 833 833 834 834 834 833 832 831 830 828 827 826 824 823 822 821 820 819 819
776 776 776 778 778 779 781 782 783 784 786 787 789 790 792 793 795 797 798 800 801 801 803 805 806 807 808 809 810 811 811 812 814 815 816 817 818 819 820 820 822 823 824 823 822 822 822 822 823 824 825 826 828 830 831 832 833 834 834 834 835 835 834 834 834 834 834 834 835 835 835 834 834 833 831 829 828 827 826 825 824 822 822 821 821
774 774 774 775 775 776 777 778 780 781 782 784 786 787 789 790 792 794 796 797 797 798 800 802 803 804 806 807 808 808 809 810 812 813 815 815 816 817 818 819 820 821 820 820 820 820 821 821 822 823 825 826 828 830 831 831 832 834 835 835 836 836 836 835 835 835 835 835 835 836 836 835 834 833 832 830 830 829 828 827 826 824 823 822 822
771 771 771 772 773 773 774 775 776 778 779 781 783 785 786 787 788 790 792 794 795 796 797 799 800 802 803 805 806 806 807 808 810 811 812 814 814 816 817 818 818 817 817 818 818 819 820 821 822 823 825 826 828 829 831 831 831 833 834 835 837 837 837 837 836 836 835 835 836 837 836 836 835 834 832 831 830 830 829 828 826 825 824 823 822
769 769 769 769 770 770 771 772 773 774 776 777 779 780 782 783 784 786 788 790 792 794 795 796 797 799 801 803 804 804 805 806 807 809 810 811 812 814 815 816 815 815 816 817 818 819 820 821 822 824 827 829 829 831 833 833 834 834 834 835 837 839 839 839 838 837 837 837 837 838 838 837 836 835 833 832 831 830 830 828 827 827 826 825 824
766 766 766 766 766 767 768 769 770 771 772 773 775 777 779 780 782 782 784 786 789 791 793 795 796 798 800 801 801 802 803 804 805 807 808 809 811 812 813 813 814 815 816 817 818 819 820 822 823 825 827 830 831 833 835 836 837 837 836 836 838 840 841 841 840 839 839 839 838 839 838 838 837 835 834 833 832 831 831 830 831 830 829 828 827
763 762 762 763 763 764 764 765 767 768 768 770 772 774 776 778 780 780 781 783 786 789 791 793 795 797 798 799 800 801 802 803 804 805 806 808 809 810 811 812 813 815 816 817 818 820 822 823 825 826 827 829 831 834 837 838 839 838 837 837 839 841 842 842 841 840 840 840 839 839 839 839 838 837 835 834 833 832 832 833 833 832 831 831 830
759 758 758 759 759 761 761 762 763 764 765 767 769 772 774 775 777 778 779 781 784 786 788 791 793 795 797 798 799 800 801 802 803 804 805 807 808 809 810 811 812 814 815 817 819 821 823 825 826 827 829 830 832 835 838 840 840 839 839 839 841 843 843 843 842 841 841 841 841 841 841 840 840 839 837 836 835 834 834 834 834 834 833 833 832
756 755 755 754 755 756 757 759 760 761 763 765 767 770 771 772 774 776 777 779 782 785 786 788 790 793 796 797 799 800 801 801 802 803 804 806 807 808 809 810 811 813 815 817 819 821 823 826 828 829 830 831 832 834 837 840 841 841 841 842 843 844 844 843 842 842 842 842 842 843 843 842 842 841 839 838 837 836 836 835 835 835 835 834 832
752 752 751 751 751 751 752 754 756 759 761 763 765 767 769 771 772 774 775 777 780 784 785 787 789 792 795 797 799 800 801 802 802 803 804 805 806 807 809 810 811 813 815 818 820 822 824 826 828 830 832 833 834 835 836 839 841 842 842 843 844 845 844 843 844 844 844 844 844 845 845 845 844 843 841 840 839 838 838 837 837 836 836 835 833
749 748 747 747 748 748 749 750 753 755 758 760 762 765 767 770 772 773 775 777 780 783 786 788 790 793 796 799 800 801 802 802 802 803 804 806 807 809 810 812 813 814 816 819 822 823 825 827 829 832 833 834 836 838 839 840 841 842 843 844 845 845 844 844 845 845 845 846 846 846 847 847 846 845 844 843 841 840 840 839 838 838 836 835 834
746 745 744 744 745 745 747 749 751 753 755 758 760 762 765 767 770 772 775 777 780 783 786 790 792 794 796 800 802 802 803 803 803 805 806 807 809 811 813 814 815 816 818 821 823 824 826 829 831 833 835 836 838 840 841 842 843 843 844 845 845 845 845 846 847 847 847 848 848 848 848 848 848 847 845 844 843 842 842 841 840 839 837 836 835
745 744 743 742 743 744 745 747 749 751 753 755 756 759 761 764 767 771 774 776 779 783 788 791 792 793 796 799 802 804 804 804 805 806 808 810 811 813 815 817 818 819 820 822 825 826 828 831 833 835 837 838 840 842 843 844 844 845 845 846 846 846 847 847 848 848 848 849 849 849 850 849 849 848 846 845 844 843 842 842 840 839 838 836 835
744 743 742 742 742 743 745 747 748 749 751 753 754 755 757 760 763 768 772 775 778 781 786 791 793 795 797 801 803 805 805 806 808 809 810 812 814 816 818 820 822 823 824 825 827 829 831 833 835 837 839 841 842 843 844 846 846 847 847 847 848 848 849 849 849 849 850 850 850 851 851 851 850 848 847 846 845 844 843 842 841 839 838 837 836
744 743 743 743 743 744 745 747 748 749 751 753 755 757 757 758 761 766 770 774 777 780 784 790 794 796 799 801 803 805 806 807 810 812 812 814 816 818 820 822 824 825 826 828 830 832 834 836 838 840 841 843 844 844 845 846 847 848 849 849 850 850 851 851 851 851 851 851 851 851 851 851 850 849 848 846 845 844 843 842 841 840 839 838 836
746 745 745 744 745 746 747 748 749 751 753 756 759 762 764 762 764 769 774 775 777 780 784 787 791 796 799 800 801 805 809 810 811 814 815 816 819 820 822 824 825 826 827 829 832 834 836 838 840 842 844 844 845 846 846 847 848 849 850 851 852 852 853 853 852 852 852 852 852 852 851 850 850 849 848 847 846 845 844 843 842 841 840 838 837
749 749 748 748 748 749 750 752 753 754 756 758 762 768 772 769 766 770 777 779 779 782 785 787 790 796 800 800 800 804 809 811 812 815 816 818 820 822 823 825 826 827 828 830 833 836 838 841 843 844 845 846 846 847 848 849 850 852 852 853 854 854 854 854 854 854 854 853 853 852 852 851 850 850 849 848 847 846 844 843 842 841 840 839 837
753 753 752 752 753 754 755 757 759 759 760 762 764 772 780 779 771 770 777 783 786 788 789 790 793 797 800 801 801 804 808 810 813 816 817 819 822 823 825 826 827 828 830 831 834 837 840 842 844 846 846 847 848 849 850 851 852 854 854 855 855 855 855 855 855 855 855 855 854 854 853 852 851 850 850 848 847 846 845 844 843 842 840 839 838
758 758 757 757 758 758 760 762 764 764 765 767 769 774 782 784 778 777 782 787 792 793 792 792 795 799 800 800 802 805 808 811 814 816 818 819 822 823 825 827 828 830 831 833 835 838 840 843 845 846 847 848 849 850 852 853 854 855 855 856 856 856 856 856 856 856 856 856 855 855 854 853 853 851 850 849 848 847 845 844 843 842 841 840 839
764 764 764 763 762 762 765 768 770 770 770 773 776 778 782 784 784 786 791 794 796 797 796 795 798 800 801 802 804 807 811 813 815 817 818 820 821 823 825 827 829 831 832 834 836 839 841 843 845 847 848 849 850 852 853 854 854 855 856 856 857 857 857 857 857 857 857 857 856 856 855 854 853 852 851 850 848 847 846 845 844 843 842 841 839
769 769 770 769 768 768 770 773 775 776 777 779 782 784 786 788 790 793 798 800 800 799 798 799 801 802 803 806 808 810 813 815 817 819 820 821 822 823 825 827 830 832 834 835 837 839 841 844 846 847 849 850 851 853 854 854 855 856 856 857 858 858 858 858 858 858 858 857 857 857 856 855 854 852 851 850 849 847 847 846 844 843 842 841 839
773 774 775 774 774 775 776 778 780 783 785 787 789 791 793 794 795 796 799 801 802 801 801 802 805 806 808 810 812 814 816 818 819 821 822 823 825 825 827 829 832 834 836 837 838 840 842 845 847 848 850 851 853 854 855 856 857 857 857 858 859 859 859 859 859 859 859 858 858 857 856 855 854 852 851 850 849 848 847 846 845 844 843 842 841
776 778 779 778 779 781 782 784 785 787 789 791 793 795 797 797 798 799 800 802 803 804 805 807 809 811 812 814 815 817 818 820 822 824 825 826 827 828 829 831 834 836 837 838 840 842 844 846 848 849 851 852 854 855 856 857 858 858 859 860 860 860 860 860 860 860 859 858 858 857 856 855 854 853 852 851 849 848 847 846 846 845 844 843 842
780 782 783 783 784 785 787 788 789 791 792 794 796 797 799 800 800 802 803 805 806 807 809 811 813 815 816 818 819 820 821 822 824 826 828 829 830 830 831 833 835 837 838 840 842 843 845 847 849 851 853 854 855 857 858 858 859 859 860 861 861 861 861 861 861 860 859 859 858 857 856 855 854 853 852 851 850 849 848 848 847 846 846 845 843
785 786 786 787 788 789 791 792 793 794 796 797 799 800 801 802 803 805 807 809 810 811 812 814 816 817 819 821 822 823 824 825 827 828 830 831 832 832 833 834 836 838 840 842 843 845 847 849 851 853 854 856 857 858 859 859 860 860 861 861 861 862 862 861 860 860 859 859 858 857 856 856 855 854 853 852 851 850 849 849 848 847 846 845 844
788 789 789 790 791 792 794 795 797 798 799 800 801 803 804 805 806 808 810 812 813 814 816 817 818 820 822 824 825 826 826 828 829 830 831 833 833 834 835 836 838 839 841 844 845 847 849 851 853 854 856 857 858 860 860 861 861 862 862 862 862 862 861 861 860 860 860 859 858 858 857 856 856 855 854 853 852 851 850 849 848 847 846 845 844
791 792 793 793 793 795 796 797 799 800 802 803 804 805 806 808 809 811 813 815 816 818 819 820 821 823 825 826 827 828 828 829 831 832 833 834 835 836 837 838 840 841 843 845 847 849 850 852 854 856 858 859 860 861 861 862 862 862 862 863 862 862 862 862 861 861 860 860 859 858 858 858 857 856 855 854 853 852 851 850 849 848 847 846 845
793 795 796 796 796 798 799 800 801 802 804 805 807 808 809 810 812 813 816 817 819 821 822 823 824 826 827 828 829 829 830 831 832 834 835 836 837 838 839 841 842 844 845 847 849 851 852 854 856 858 859 860 861 861 862 862 863 863 863 863 863 863 862 862 862 861 861 860 860 860 859 858 857 856 855 854 853 853 852 851 850 849 848 847 846
794 796 797 798 799 800 801 802 803 804 806 807 809 810 812 813 815 816 818 820 822 823 824 825 827 828 830 831 831 831 832 833 834 836 837 838 840 841 842 843 844 846 848 849 851 853 854 856 858 859 860 861 861 862 862 863 863 863 864 863 863 863 863 863 862 862 862 862 861 860 859 859 858 857 856 855 854 854 853 852 851 850 849 848 846
795 797 800 801 801 802 804 805 805 806 808 809 811 813 814 816 817 819 821 822 824 825 826 828 830 831 832 833 834 834 834 835 837 838 839 841 842 843 844 846 847 848 850 851 853 854 856 857 858 860 860 861 862 862 863 863 864 864 864 864 864 864 864 864 864 863 863 862 862 861 860 859 858 857 857 856 856 855 854 853 852 851 849 848 847
796 799 802 803 803 804 805 806 807 809 810 812 813 815 817 818 820 821 823 825 826 828 829 830 832 833 835 836 836 836 837 838 840 841 842 843 845 846 847 848 849 850 852 853 854 856 857 858 859 860 860 861 862 863 863 864 865 865 865 865 865 865 865 865 864 864 863 863 862 861 860 860 859 858 858 857 857 856 855 853 852 850 849 848 847
797 799 802 804 804 805 806 808 809 811 812 813 815 817 819 820 822 824 825 827 829 830 832 833 834 836 837 838 839 839 840 841 843 844 845 846 847 848 849 850 851 852 853 855 856 857 857 858 859 860 861 862 863 863 864 865 866 866 866 866 866 866 865 865 864 864 863 863 862 862 861 861 860 860 859 858 857 856 855 853 852 851 849 848 847
798 799 802 804 806 807 808 809 810 812 813 815 817 819 821 823 824 826 828 830 831 833 834 835 837 838 839 840 841 842 843 844 845 846 847 848 849 850 851 852 853 854 855 856 857 857 858 859 860 861 862 863 864 865 865 866 866 866 866 866 866 866 865 865 864 864 864 864 863 863 862 862 861 860 859 858 857 856 854 853 852 851 850 849 848
801 801 802 804 806 808 809 810 812 813 814 816 818 820 823 825 826 828 830 831 833 835 836 838 839 841 841 842 843 844 845 846 847 847 848 849 850 851 852 853 854 855 856 857 858 858 859 860 861 862 863 864 865 865 866 866 866 866 866 866 866 866 865 865 865 865 865 864 864 863 863 862 861 860 859 858 857 856 855 854 853 852 851 850 849
803 803 804 805 807 809 810 812 813 814 816 818 820 822 824 826 828 830 832 833 834 836 838 839 841 842 843 844 845 845 846 847 848 849 850 850 851 852 853 854 855 856 857 858 859 860 861 861 862 863 864 864 865 866 866 867 867 867 867 867 867 867 866 865 865 865 865 865 864 863 863 862 861 860 859 858 857 856 855 855 854 853 852 851 850
804 805 805 807 809 811 812 814 815 816 818 819 821 823 825 828 830 831 833 834 836 837 839 841 842 843 845 846 846 847 848 848 849 850 851 851 852 853 854 855 856 857 858 859 860 861 861 862 863 863 864 865 866 866 867 868 868 869 869 868 868 867 867 866 866 866 865 864 864 863 862 862 861 860 859 859 858 857 856 856 855 854 853 852 851
806 807 807 809 810 812 814 815 816 817 819 820 822 824 827 829 831 833 834 836 837 838 840 842 843 844 846 847 847 848 849 849 850 851 852 852 853 854 855 856 857 858 859 860 861 861 862 863 863 864 865 866 867 867 868 869 869 869 869 869 869 868 867 867 866 865 864 864 863 863 862 862 862 861 861 860 859 858 857 857 855 854 853 852 851
807 808 810 811 812 813 814 816 817 818 820 821 823 825 827 829 831 833 834 836 838 839 841 842 843 845 846 847 848 849 850 850 851 852 853 853 854 855 856 857 858 859 860 861 861 862 863 864 864 865 866 867 867 868 869 869 870 870 870 869 869 868 867 867 866 865 864 864 864 864 863 863 863 862 861 861 860 859 858 857 856 855 854 853 851
809 810 811 812 813 814 816 817 818 819 821 822 823 825 827 829 831 833 835 836 838 839 841 842 844 845 846 847 848 849 850 851 852 853 853 854 855 856 857 858 859 860 861 862 862 863 864 864 865 866 867 867 868 869 869 870 870 870 869 869 868 868 867 866 866 865 865 864 864 865 864 864 863 863 862 861 860 859 859 858 857 856 854 853 852